Location: Eaglesham
(55.7833°N, 117.9000°W)
Time: 17:42:12
(UTC+00:00)

ISS - Pass Details

Date: 03 December 2021
Orbit: 413 x 422 km, 51.6° (Epoch: 23 January)

Event Time Altitude Azimuth Distance (km) Brightness Sun altitude
Rises 00:31:35 0° 262° (W) 2,386 1.7 -8.9°
Reaches altitude 10° 00:33:46 10° 255° (WSW) 1,518 0.6 -9.2°
Maximum altitude 00:36:59 40° 185° (S) 638 -2.6 -9.6°
Drops below altitude 10° 00:40:12 10° 114° (ESE) 1,512 -1.3 -10.0°
Enters shadow 00:40:49 - 111° (ESE) 1,754 -1.0 -10.1°
